• In Hungary
  • List of Countries
  • For 7 days
  • Water Temperature
  • Satellite Maps
  • Weather Map
  • News
  • Weather Widgets
  • user-avatar
    Login

    Hourly Weather Shaki

    Today, 19 October, Friday

    Time Temperature Precipitation Wind Pressure Humidity
    00:00 +16°C° 0 mm 2 mps 739 mmHg 73%
    01:00 +16°C° 0 mm 2 mps 739 mmHg 74%
    02:00 +16°C° 0 mm 2 mps 739 mmHg 75%
    03:00 +15°C° 0 mm 1 mps 739 mmHg 75%
    04:00 +15°C° 0 mm 1 mps 739 mmHg 75%
    05:00 +15°C° 0 mm 1 mps 739 mmHg 75%
    06:00 +15°C° 0 mm 1 mps 739 mmHg 75%
    07:00 +18°C° 0 mm 1 mps 739 mmHg 71%
    08:00 +19°C° 0 mm 1 mps 739 mmHg 68%
    09:00 +20°C° 0 mm 1 mps 739 mmHg 65%
    10:00 +20°C° 0 mm 2 mps 739 mmHg 62%
    11:00 +21°C° 0 mm 2 mps 739 mmHg 59%
    12:00 +23°C° 0 mm 2 mps 738 mmHg 56%
    13:00 +23°C° 0 mm 2 mps 738 mmHg 56%
    14:00 +23°C° 0 mm 2 mps 738 mmHg 56%
    15:00 +23°C° 0 mm 2 mps 738 mmHg 56%
    16:00 +21°C° 0 mm 2 mps 738 mmHg 62%
    17:00 +21°C° 0 mm 1 mps 738 mmHg 69%
    18:00 +19°C° 0 mm 1 mps 738 mmHg 76%
    19:00 +19°C° 0 mm 1 mps 738 mmHg 77%
    20:00 +19°C° 0 mm 1 mps 738 mmHg 78%
    21:00 +18°C° 0 mm 1 mps 738 mmHg 79%
    22:00 +18°C° 0 mm 1 mps 738 mmHg 80%
    23:00 +18°C° 0 mm 1 mps 738 mmHg 81%

    Tomorrow, 20 October, Saturday

    Time Temperature Precipitation Wind Pressure Humidity
    00:00 +16°C° 0 mm 1 mps 738 mmHg 81%
    01:00 +16°C° 0 mm 1 mps 738 mmHg 81%
    02:00 +16°C° 0 mm 1 mps 737 mmHg 82%
    03:00 +15°C° 0 mm 1 mps 737 mmHg 82%
    04:00 +15°C° 0 mm 1 mps 737 mmHg 81%
    05:00 +15°C° 0 mm 1 mps 737 mmHg 80%
    06:00 +15°C° 0 mm 1 mps 737 mmHg 79%
    07:00 +18°C° 0 mm 1 mps 737 mmHg 72%
    08:00 +18°C° 0 mm 2 mps 737 mmHg 64%
    09:00 +20°C° 0 mm 2 mps 737 mmHg 56%
    10:00 +21°C° 0 mm 2 mps 736 mmHg 50%
    11:00 +23°C° 0 mm 2 mps 736 mmHg 44%
    12:00 +25°C° 0 mm 2 mps 736 mmHg 38%
    13:00 +25°C° 0 mm 2 mps 735 mmHg 37%
    14:00 +25°C° 0 mm 1 mps 735 mmHg 35%
    15:00 +25°C° 0 mm 1 mps 735 mmHg 34%
    16:00 +24°C° 0 mm 1 mps 735 mmHg 39%
    17:00 +22°C° 0 mm 1 mps 735 mmHg 43%
    18:00 +20°C° 0 mm 1 mps 735 mmHg 48%
    19:00 +20°C° 0 mm 1 mps 735 mmHg 49%
    20:00 +20°C° 0 mm 1 mps 735 mmHg 49%
    21:00 +19°C° 0 mm 1 mps 735 mmHg 50%
    22:00 +19°C° 0 mm 1 mps 735 mmHg 50%
    23:00 +19°C° 0 mm 1 mps 735 mmHg 51%

    Day after tomorrow, 21 October, Sunday

    Time Temperature Precipitation Wind Pressure Humidity
    00:00 +18°C° 0 mm 1 mps 735 mmHg 51%
    01:00 +18°C° 0 mm 1 mps 735 mmHg 50%
    02:00 +18°C° 0 mm 1 mps 735 mmHg 50%
    03:00 +18°C° 0 mm 1 mps 735 mmHg 49%
    04:00 +18°C° 0 mm 1 mps 735 mmHg 48%
    05:00 +18°C° 0 mm 1 mps 735 mmHg 46%
    06:00 +16°C° 0 mm 1 mps 735 mmHg 44%
    07:00 +19°C° 0 mm 1 mps 735 mmHg 41%
    08:00 +21°C° 0 mm 1 mps 735 mmHg 37%
    09:00 +23°C° 0 mm 1 mps 735 mmHg 34%
    10:00 +24°C° 0 mm 1 mps 735 mmHg 32%
    11:00 +25°C° 0 mm 2 mps 734 mmHg 30%
    12:00 +26°C° 0 mm 2 mps 734 mmHg 28%
    13:00 +26°C° 0 mm 1 mps 734 mmHg 28%
    14:00 +26°C° 0 mm 1 mps 734 mmHg 27%
    15:00 +26°C° 0 mm 1 mps 733 mmHg 27%
    16:00 +25°C° 0 mm 1 mps 733 mmHg 31%
    17:00 +23°C° 0 mm 1 mps 734 mmHg 35%
    18:00 +21°C° 0 mm 1 mps 734 mmHg 38%
    19:00 +21°C° 0 mm 1 mps 734 mmHg 38%
    20:00 +21°C° 0 mm 1 mps 734 mmHg 39%
    21:00 +20°C° 0 mm 1 mps 734 mmHg 39%
    22:00 +20°C° 0 mm 1 mps 734 mmHg 39%
    23:00 +20°C° 0 mm 1 mps 734 mmHg 39%

    22 October, Monday

    Time Temperature Precipitation Wind Pressure Humidity
    00:00 +19°C° 0 mm 1 mps 733 mmHg 39%
    01:00 +19°C° 0 mm 1 mps 733 mmHg 38%
    02:00 +19°C° 0 mm 1 mps 733 mmHg 38%
    03:00 +19°C° 0 mm 1 mps 733 mmHg 37%
    04:00 +19°C° 0 mm 1 mps 733 mmHg 38%
    05:00 +19°C° 0 mm 1 mps 733 mmHg 38%
    06:00 +19°C° 0 mm 1 mps 733 mmHg 38%
    07:00 +19°C° 0 mm 2 mps 733 mmHg 36%
    08:00 +21°C° 0 mm 2 mps 733 mmHg 33%
    09:00 +23°C° 0 mm 2 mps 734 mmHg 31%
    10:00 +24°C° 0 mm 2 mps 733 mmHg 30%
    11:00 +25°C° 0 mm 2 mps 733 mmHg 28%
    12:00 +26°C° 0 mm 3 mps 733 mmHg 26%
    13:00 +27°C° 0 mm 3 mps 733 mmHg 26%
    14:00 +27°C° 0 mm 3 mps 732 mmHg 27%
    15:00 +27°C° 0 mm 3 mps 732 mmHg 27%
    16:00 +25°C° 0 mm 3 mps 733 mmHg 29%
    17:00 +24°C° 0 mm 2 mps 733 mmHg 32%
    18:00 +21°C° 0 mm 2 mps 733 mmHg 35%
    19:00 +20°C° 0 mm 2 mps 733 mmHg 35%
    20:00 +20°C° 0 mm 2 mps 734 mmHg 36%
    21:00 +20°C° 0 mm 2 mps 734 mmHg 36%
    22:00 +19°C° 0 mm 2 mps 734 mmHg 36%
    23:00 +19°C° 0 mm 2 mps 734 mmHg 36%

    23 October, Tuesday

    Time Temperature Precipitation Wind Pressure Humidity
    00:00 +19°C° 0 mm 2 mps 734 mmHg 36%
    01:00 +18°C° 0 mm 2 mps 734 mmHg 37%
    02:00 +18°C° 0 mm 2 mps 734 mmHg 38%
    03:00 +18°C° 0 mm 2 mps 734 mmHg 39%
    04:00 +18°C° 0 mm 2 mps 734 mmHg 41%
    05:00 +18°C° 0 mm 2 mps 734 mmHg 43%
    06:00 +17°C° 0 mm 2 mps 734 mmHg 44%
    07:00 +19°C° 0 mm 2 mps 735 mmHg 41%
    08:00 +21°C° 0 mm 2 mps 735 mmHg 37%
    09:00 +24°C° 0 mm 2 mps 735 mmHg 33%
    10:00 +25°C° 0 mm 2 mps 735 mmHg 31%
    11:00 +26°C° 0 mm 2 mps 734 mmHg 29%
    12:00 +27°C° 0 mm 2 mps 734 mmHg 27%
    13:00 +27°C° 0 mm 2 mps 734 mmHg 26%
    14:00 +27°C° 0 mm 2 mps 734 mmHg 26%
    15:00 +27°C° 0 mm 2 mps 733 mmHg 25%
    16:00 +25°C° 0 mm 2 mps 733 mmHg 28%
    17:00 +24°C° 0 mm 2 mps 734 mmHg 30%
    18:00 +21°C° 0 mm 2 mps 734 mmHg 32%
    19:00 +21°C° 0 mm 2 mps 734 mmHg 33%
    20:00 +21°C° 0 mm 2 mps 734 mmHg 34%
    21:00 +20°C° 0 mm 2 mps 734 mmHg 35%
    22:00 +20°C° 0 mm 2 mps 734 mmHg 38%
    23:00 +20°C° 0 mm 2 mps 734 mmHg 41%

    24 October, Wednesday

    Time Temperature Precipitation Wind Pressure Humidity
    00:00 +19°C° 0 mm 2 mps 733 mmHg 43%
    01:00 +19°C° 0 mm 2 mps 733 mmHg 44%
    02:00 +19°C° 0 mm 2 mps 733 mmHg 46%
    03:00 +18°C° 0 mm 2 mps 733 mmHg 47%
    04:00 +18°C° 0 mm 2 mps 733 mmHg 47%
    05:00 +18°C° 0 mm 2 mps 733 mmHg 47%
    06:00 +18°C° 0 mm 2 mps 733 mmHg 47%
    07:00 +20°C° 0 mm 3 mps 732 mmHg 43%
    08:00 +22°C° 0 mm 3 mps 732 mmHg 39%
    09:00 +25°C° 0 mm 3 mps 732 mmHg 34%
    10:00 +26°C° 0 mm 3 mps 732 mmHg 32%
    11:00 +27°C° 0 mm 3 mps 731 mmHg 30%
    12:00 +28°C° 0 mm 4 mps 731 mmHg 28%
    13:00 +28°C° 0 mm 4 mps 730 mmHg 27%
    14:00 +28°C° 0 mm 4 mps 729 mmHg 27%
    15:00 +28°C° 0 mm 4 mps 729 mmHg 27%
    16:00 +26°C° 0 mm 3 mps 729 mmHg 31%
    17:00 +24°C° 0 mm 3 mps 729 mmHg 35%
    18:00 +22°C° 0 mm 3 mps 729 mmHg 39%
    19:00 +21°C° 0 mm 3 mps 728 mmHg 39%
    20:00 +21°C° 0 mm 3 mps 728 mmHg 40%
    21:00 +21°C° 0 mm 3 mps 728 mmHg 40%
    22:00 +20°C° 0 mm 3 mps 728 mmHg 40%
    23:00 +20°C° 0 mm 3 mps 728 mmHg 40%
    Show more